Flag for Germany Weather past 2 weeks in Kehl, Baden-Württemberg, Germany

Now
52 °F

Cloudy.


Feels Like: 46 °F
Forecast: 42 / 49 °F
Wind: 18 mph from West

Location: Strasbourg Airport

Current Time: Oct 21, 2014 at 7:30:54 PM

Latest Report: Oct 21, 2014 at 7:00 PM


Visibility: N/A

Pressure: 29.80 "Hg

Humidity: 77%

Dew point: 45 °F

Location of KehlLocation

Historic Weather in Kehl — Graph

°F

Kehl temperature yesterday

Maximum temperature yesterday: 72 °F (at 12:30 PM)
Minimum temperature yesterday: 59 °F (at 3:00 AM)
Average temperature yesterday: 64 °F

Past Weeks' High & Low Weather Summary

 TemperatureHumidityPressure
High79 °F (Oct 19, 3:00 PM)100% (Oct 7, 6:00 AM)30.18 "Hg (Oct 7, 6:00 AM)
Low45 °F (Oct 12, 6:00 AM)50% (Oct 9, 3:00 PM)29.68 "Hg (Oct 21, 5:00 PM)
Average60 °F87%29.91 "Hg
* Reported Oct 6 6:00 PM — Oct 21 6:30 PM, Kehl, Weather by CustomWeather, © 2014

Note: Actual official high and low records may vary slightly from our data, if they occured in-between our weather recording intervals... More about our weather records

Advertising

Kehl weather history for previous 24 hours

 ConditionsComfort  
Time TempWeatherWind HumidityBarometerVisibility
6:30 PM
Oct 21
52 °FRain. Fog.36 mph82%29.74 "Hg2 mi
6:00 PM61 °FScattered clouds.15 mph72%29.68 "HgN/A
5:30 PM63 °FLight rain. Partly sunny.15 mph73%29.68 "HgN/A
5:00 PM63 °FOvercast.16 mph68%29.68 "HgN/A
4:30 PM64 °FMostly cloudy.17 mph60%29.71 "HgN/A
4:00 PM64 °FMostly cloudy.18 mph60%29.74 "HgN/A
3:30 PM63 °FOvercast.16 mph64%29.77 "HgN/A
3:00 PM64 °FPartly sunny.18 mph56%29.80 "HgN/A
2:30 PM64 °FPartly sunny.20 mph60%29.83 "HgN/A
2:00 PM64 °FBroken clouds.18 mph60%29.83 "HgN/A
1:30 PM64 °FPartly sunny.17 mph64%29.86 "HgN/A
1:00 PM63 °FMostly cloudy.13 mph64%29.89 "HgN/A
12:30 PM63 °FMostly cloudy.12 mph64%29.89 "HgN/A
12:00 PM63 °FBroken clouds.16 mph64%29.92 "HgN/A
11:30 AM63 °FMostly cloudy.20 mph64%29.92 "HgN/A
11:00 AM63 °FPartly sunny.14 mph59%29.95 "HgN/A
10:30 AM61 °FScattered clouds.14 mph68%29.92 "HgN/A
10:00 AM61 °FPassing clouds.8 mph83%29.95 "HgN/A
9:30 AM59 °FPassing clouds.9 mph88%29.95 "HgN/A
9:00 AM54 °FPassing clouds.2 mph100%29.95 "HgN/A
8:30 AM52 °FClear.1 mph94%29.95 "HgN/A
8:00 AM52 °FClear.2 mph94%29.95 "HgN/A
7:30 AM52 °FPassing clouds.2 mph100%29.95 "HgN/A
7:00 AM54 °FPassing clouds.No wind94%29.95 "Hg6 mi
6:30 AM54 °FPartly cloudy.No wind94%29.95 "Hg6 mi
6:00 AM55 °FPassing clouds.2 mph88%29.95 "HgN/A
5:30 AM55 °FMostly cloudy.5 mph94%29.98 "HgN/A
5:00 AM57 °FOvercast.6 mph88%29.98 "HgN/A
4:30 AM57 °FOvercast.5 mph82%29.98 "HgN/A
4:00 AM57 °FMostly cloudy.5 mph82%30.01 "HgN/A
3:30 AM57 °FMostly cloudy.7 mph82%30.01 "HgN/A
3:00 AM59 °FMostly cloudy.9 mph82%30.01 "HgN/A
2:30 AM59 °FMostly cloudy.6 mph82%30.04 "HgN/A
2:00 AM59 °FOvercast.6 mph88%30.04 "HgN/A
1:30 AM59 °FPartly cloudy.7 mph88%30.04 "HgN/A
1:00 AM59 °FPartly cloudy.6 mph88%30.04 "HgN/A
12:30 AM59 °FLight rain. Overcast.2 mph88%30.04 "HgN/A
12:00 AM59 °FOvercast.2 mph88%30.04 "HgN/A
11:30 PM
Oct 20
59 °FPassing clouds.3 mph94%30.04 "HgN/A
11:00 PM59 °FClear.5 mph94%30.04 "HgN/A
10:30 PM61 °FLight rain. Overcast.3 mph88%30.04 "HgN/A
10:00 PM61 °FLight rain. Passing clouds.3 mph88%30.04 "HgN/A
9:30 PM63 °FOvercast.6 mph83%30.04 "HgN/A
9:00 PM63 °FMostly cloudy.12 mph83%30.04 "HgN/A
8:30 PM63 °FPassing clouds.8 mph77%30.04 "HgN/A
8:00 PM63 °FClear.6 mph83%30.04 "HgN/A
7:30 PM64 °FMostly cloudy.1 mph78%30.04 "HgN/A
7:00 PM64 °FPartly sunny.3 mph78%30.04 "HgN/A
Weather by CustomWeather, © 2014

See weather overviewHow to use our weather pages